MUGMMKJP

Guest
Details From MUGM - Guantanamo Bay Ns
To MKJP - Norman Manley Intl
Flight Number -
Tags generated
Created
Modified
Stats Distance 149 nm / 275 km
Max Altitude 14,600 ft / 4,450 m
Waypoints 3
Social Downloads 2
Likes 0
Share VATSIM

Download

Looking for another format? Having issues loading an existing format? Contact us
Advertisement - Login to hide

Notes

Basic altitude profile: - Ascent Rate: 2500ft/min - Ascent Speed: 250kts - Cruise Altitude: 35000ft - Cruise Speed: 420kts - Descent Rate: 1500ft/min - Descent Speed: 250kts Options: - Use NATs: yes - Use PACOTS: yes - Use low airways: yes - Use high airways: yes

Route

MUGM ERICC MKJP

ID Type Via Altitude Latitude Longitude Leg Dist Tot Dist Heading (true) Name
O MUGM APT - 0 ft / 0 m 19.90646˚ -75.20706˚ - 0 nm - Guantanamo Bay Ns
ERICC FIX - 14,600 ft / 4,450 m 18.85322˚ -76.08402˚ 80 nm 80 nm 218° / 218° -
O MKJP APT - 0 ft / 0 m 17.93567˚ -76.78756˚ 68 nm 148 nm 216° / 216° Norman Manley Intl

Altitude Profile

Advertisement - Login to hide

MUGM

Details ICAO MUGM
Name Guantanamo Bay Ns
Region Cuba
Timezone Unknown (UTC+0.0)
Stats Elevation 56 ft / 17 m (AMSL)
Location 19.906458° -75.207055°
Runways 1
Magnetic Variation 8.795° W

METAR

MUGM 201356Z 00000KT 9999 FEW025 SCT085 BKN130 27/24 A3001 RMK SLP163 VCSH S T02670239

Decode

TAF

TAF MUGM 2007/2107 32010KT 9999 VCSH SCT010CB SCT050 BKN080 QNH2991INS BECMG 2012/2014 9999 VCSH FEW010 SCT050 BKN100 QNH2994INS BECMG 2016/2018 12010KT 9999 NSW QNH2995INS BECMG 2101/2103 06010KT 9999 SHRA VCTS SCT010CB BKN080 QNH2989INS T23/2009Z T31/2020Z FN00180

Decode

Departure Runways

ID Width Length Bearing (true) Bearing (mag) Surface Threshold Offset Overrun Length
10 200 ft / 61 m 7,988 ft / 2,435 m 91.09° 99.88° Asphalt 100 ft / 30 m 150 ft / 46 m
28 200 ft / 61 m 7,988 ft / 2,435 m 271.10° 279.89° Asphalt 100 ft / 30 m 150 ft / 46 m

MKJP

Details ICAO MKJP (KIN)
Name Norman Manley Intl
Region Jamaica
Timezone Unknown (UTC+0.0)
Stats Elevation 10 ft / 3 m (AMSL)
Location 17.935665° -76.787560°
Runways 1
Magnetic Variation 7.589° W

METAR

MKJP 201400Z 13015KT 9999 FEW022 29/25 Q1013

Decode

TAF

TAF MKJP 201115Z 2012/2112 11012KT 9999 FEW022 BECMG 2014/2016 13022KT PROB40 TEMPO 2017/2024 8000 SHRA SCT020 FEW022CB SCT034 BECMG 2102/2104 11012KT

Decode

Destination Runways

ID Width Length Bearing (true) Bearing (mag) Surface Threshold Offset Overrun Length
12 150 ft / 46 m 8,912 ft / 2,717 m 112.09° 119.68° Asphalt 0 ft / 0 m 0 ft / 0 m
30 150 ft / 46 m 8,912 ft / 2,717 m 292.10° 299.69° Asphalt 0 ft / 0 m 0 ft / 0 m

Approach Navaids

Runway Type Ident Frequency Range Bearing (true) Bearing (mag) Slope Elevation
12 Localiser IMLY 109.10 MHz 18 nm / 33 km 115.09° 122.68° - 10 ft / 3 m (AMSL)
12 Glidescope IMLY 109.10 MHz 10 nm / 19 km 115.09° 122.68° 3.00° 8 ft / 2 m (AMSL)

Popular Alternatives